Terminal Aerodrome Forecast
Issued by NWS

Home | Current Version | Previous Version | Text Only | Print | Product List | Glossary On
Versions: 1 2 3 4 5 6 7 8 9 10 11 12 13 14 15 16 17 18 19 20 21 22 23 24 25 26 27 28 29 30 31 32 33 34 35 36 37 38 39 40 41 42 43 44 45 46
000
FTUS45 KVEF 220800 AAA
TAFLAS
TAF AMD
KLAS 220846Z 2209/2306 19010KT P6SM SCT250
     FM221500 VRB05KT P6SM SCT250
     FM221900 08006KT P6SM SCT250
     FM230200 19008KT P6SM FEW250=

USA.gov is the U.S. government's official web portal to all federal, state and local government web resources and services.